Date String (YYYY-MM-DD hh:mm:ss) UTC,Instrument flags,absolute air pressure of the measurement (hPa),sample flow rate (lpm),inlet stack bypass flow (lpm),air temperature of the measurement (°C),ambient temperature measured by the external sensor (°C),aerosol sample conditioner tube jacket temperature (°C),OPC LED temperature (°C),internal box temperature (°C),relative humidity of the measurement (%),span deviation,mass concentration of particles derived from Lorenz-Mie calculation of OPC scattering (μg/m³),mass concentration of particles derived from Lorenz-Mie calculation of OPC scattering (μg/m³),mass concentration of particles derived from Lorenz-Mie calculation of OPC scattering (μg/m³)
DateTimeUTC,F1_M11,P_M11,Q1_M11,Q2_M11,T1_M11,T2_M11,T3_M11,T4_M11,T5_M11,U1_M11,ZSPAN_M11,X2_M11,X0_M11,X1_M11
2023-07-21 18:00:00,SystemResetWarning,0837.8,5.00,000.00,032.3,025.3,000.0,039.6,031.4,35.8,0000.9,0007.91,0011.53,0007.53
2023-07-21 18:01:00,SystemResetWarning,0837.8,5.02,000.00,032.4,025.6,000.0,039.6,031.4,35.1,0000.9,0008.01,0011.64,0007.63
2023-07-21 18:02:00,SystemResetWarning,0837.8,4.96,000.00,032.5,026.0,000.0,039.7,031.5,34.6,0000.7,0008.10,0012.16,0007.71
2023-07-21 18:03:00,SystemResetWarning,0837.8,5.03,000.00,032.6,026.4,000.0,039.7,031.6,33.6,0000.5,0008.22,0012.58,0007.79
2023-07-21 18:04:00,SystemResetWarning,0837.8,5.00,000.00,032.6,026.8,000.0,039.8,031.6,33.5,0000.2,0008.28,0012.65,0007.83
2023-07-21 18:05:00,SystemResetWarning,0837.8,5.00,000.00,032.6,027.1,000.0,039.9,031.7,34.1,-000.5,0008.26,0012.24,0007.82
2023-07-21 18:06:00,SystemResetWarning,0837.8,5.00,000.00,032.6,027.4,000.0,040.0,031.7,33.8,-000.3,0008.26,0012.22,0007.84
2023-07-21 18:07:00,SystemResetWarning,0837.8,4.99,000.00,032.6,027.6,000.0,040.0,031.7,33.0,-000.2,0008.26,0012.18,0007.84
2023-07-21 18:08:00,SystemResetWarning,0837.8,5.01,000.00,032.6,027.9,000.0,040.1,031.8,33.0,0000.1,0008.22,0012.17,0007.81
2023-07-21 18:09:00,SystemResetWarning,0837.8,5.00,000.00,032.6,027.6,000.0,040.1,031.8,32.8,-000.1,0008.20,0012.18,0007.78
2023-07-21 18:10:00,SystemResetWarning,0837.8,4.99,000.00,032.5,026.3,000.0,040.0,031.6,32.7,-000.2,0008.21,0012.11,0007.79
2023-07-21 18:11:00,SystemResetWarning,0837.7,5.01,000.00,032.5,025.4,000.0,039.9,031.4,33.2,-000.5,0008.21,0012.13,0007.77
2023-07-21 18:12:00,SystemResetWarning,0837.8,5.01,000.00,032.3,025.4,000.0,039.8,031.3,32.9,-000.7,0008.20,0012.11,0007.75
2023-07-21 18:13:00,SystemResetWarning,0837.8,5.00,000.00,032.1,025.7,000.0,039.9,031.2,33.2,-000.5,0008.19,0011.59,0007.71
2023-07-21 18:14:00,SystemResetWarning,0837.7,5.00,000.00,032.0,026.1,000.0,039.9,031.2,34.2,-000.5,0008.11,0011.26,0007.65
2023-07-21 18:15:00,SystemResetWarning,0837.7,4.98,000.00,031.9,026.5,000.0,039.9,031.3,34.9,-000.4,0008.07,0011.22,0007.62
2023-07-21 18:16:00,SystemResetWarning,0837.7,5.02,000.00,031.9,026.9,000.0,039.9,031.4,34.4,0000.2,0008.04,0011.17,0007.60
2023-07-21 18:17:00,SystemResetWarning,0837.7,4.98,000.00,031.9,027.2,000.0,039.9,031.5,34.0,0000.1,0007.98,0011.37,0007.55
2023-07-21 18:18:00,SystemResetWarning,0837.7,4.99,000.00,031.9,027.5,000.0,039.9,031.6,34.6,-000.1,0007.93,0011.98,0007.49
2023-07-21 18:19:00,SystemResetWarning,0837.6,5.02,000.00,031.9,027.7,000.0,039.9,031.7,35.0,-000.4,0007.87,0011.81,0007.45
2023-07-21 18:20:00,SystemResetWarning,0837.7,4.97,000.00,032.0,027.9,000.0,039.9,031.8,34.8,-000.4,0007.83,0011.84,0007.42
2023-07-21 18:21:00,SystemResetWarning,0837.6,5.04,000.00,032.1,027.3,000.0,039.8,031.8,33.2,-000.7,0007.81,0011.88,0007.40
2023-07-21 18:22:00,SystemResetWarning,0837.6,4.97,000.00,032.2,025.8,000.0,039.6,031.7,32.4,-000.8,0007.80,0012.05,0007.41
2023-07-21 18:23:00,SystemResetWarning,0837.7,5.02,000.00,032.2,025.2,000.0,039.5,031.5,32.0,-000.8,0007.83,0012.33,0007.44
2023-07-21 18:24:00,SystemResetWarning,0837.7,5.00,000.00,032.1,025.3,000.0,039.5,031.2,31.5,-000.7,0007.84,0012.13,0007.48
2023-07-21 18:25:00,SystemResetWarning,0837.6,5.00,000.00,031.9,025.7,000.0,039.6,031.1,32.6,-000.5,0007.91,0012.22,0007.54
2023-07-21 18:26:00,SystemResetWarning,0837.6,5.00,000.00,031.8,026.1,000.0,039.6,031.2,33.5,-000.3,0007.94,0012.24,0007.58
2023-07-21 18:27:00,SystemResetWarning,0837.6,5.00,000.00,031.7,026.5,000.0,039.7,031.3,33.6,-000.7,0007.98,0012.29,0007.60
2023-07-21 18:28:00,SystemResetWarning,0837.7,5.00,000.00,031.7,026.9,000.0,039.7,031.4,33.1,-000.7,0008.06,0012.22,0007.65
2023-07-21 18:29:00,SystemResetWarning,0837.6,5.01,000.00,031.7,027.2,000.0,039.7,031.4,32.5,-000.9,0008.08,0011.54,0007.69
2023-07-21 18:30:00,SystemResetWarning,0837.6,5.00,000.00,031.6,027.5,000.0,039.7,031.5,32.2,-000.8,0008.12,0011.64,0007.71
2023-07-21 18:31:00,SystemResetWarning,0837.6,5.00,000.00,031.6,027.7,000.0,039.7,031.5,32.4,-000.2,0008.10,0011.52,0007.70
2023-07-21 18:32:00,SystemResetWarning,0837.7,4.99,000.00,031.6,027.9,000.0,039.7,031.6,32.5,-000.2,0008.06,0011.40,0007.67
2023-07-21 18:33:00,SystemResetWarning,0837.6,5.00,000.00,031.5,027.6,000.0,039.6,031.6,32.3,-000.1,0007.98,0011.09,0007.60
2023-07-21 18:34:00,SystemResetWarning,0837.6,4.99,000.00,031.5,026.2,000.0,039.4,031.4,34.1,-000.2,0007.89,0010.67,0007.54
2023-07-21 18:35:00,SystemResetWarning,0837.6,5.01,000.00,031.5,025.3,000.0,039.3,031.3,35.2,-000.4,0007.83,0010.60,0007.49
2023-07-21 18:36:00,SystemResetWarning,0837.5,5.02,000.00,031.5,025.3,000.0,039.3,031.2,35.6,-000.7,0007.78,0010.51,0007.46
2023-07-21 18:37:00,SystemResetWarning,0837.6,4.98,000.00,031.5,025.6,000.0,039.3,031.2,34.3,-000.8,0007.74,0010.43,0007.43
2023-07-21 18:38:00,SystemResetWarning,0837.6,4.99,000.00,031.6,026.0,000.0,039.3,031.2,33.5,-000.5,0007.72,0010.39,0007.43
2023-07-21 18:39:00,SystemResetWarning,0837.6,5.02,000.00,031.6,026.4,000.0,039.3,031.3,33.5,-000.4,0007.71,0010.35,0007.42
2023-07-21 18:40:00,SystemResetWarning,0837.6,5.00,000.00,031.7,026.8,000.0,039.3,031.3,34.4,-000.2,0007.72,0010.38,0007.43
2023-07-21 18:41:00,SystemResetWarning,0837.6,4.98,000.00,031.6,027.1,000.0,039.4,031.4,34.6,-000.3,0007.72,0010.29,0007.45
2023-07-21 18:42:00,SystemResetWarning,0837.6,5.01,000.00,031.7,027.4,000.0,039.4,031.5,33.4,-001.0,0007.73,0010.26,0007.47
2023-07-21 18:43:00,SystemResetWarning,0837.6,5.01,000.00,031.7,027.7,000.0,039.5,031.6,31.7,-001.2,0007.77,0010.29,0007.49
2023-07-21 18:44:00,SystemResetWarning,0837.6,4.98,000.00,031.7,027.9,000.0,039.5,031.6,34.1,-001.0,0007.81,0010.42,0007.52
2023-07-21 18:45:00,SystemResetWarning,0837.5,5.00,000.00,031.8,027.3,000.0,039.4,031.6,34.0,-001.2,0007.84,0010.46,0007.54
2023-07-21 18:46:00,SystemResetWarning,0837.5,5.01,000.00,031.8,025.8,000.0,039.3,031.3,33.0,-001.1,0007.88,0010.44,0007.56
2023-07-21 18:47:00,SystemResetWarning,0837.5,5.00,000.00,031.7,025.2,000.0,039.2,031.2,32.5,-000.9,0007.96,0010.78,0007.63
2023-07-21 18:48:00,SystemResetWarning,0837.5,5.01,000.00,031.5,025.3,000.0,039.2,031.0,33.6,-001.2,0008.04,0011.66,0007.69
2023-07-21 18:49:00,SystemResetWarning,0837.5,5.01,000.00,031.4,025.7,000.0,039.3,031.0,33.7,-001.2,0008.07,0011.82,0007.71
2023-07-21 18:50:00,SystemResetWarning,0837.4,4.98,000.00,031.3,026.1,000.0,039.3,031.1,35.3,-001.0,0008.06,0011.86,0007.70
2023-07-21 18:51:00,SystemResetWarning,0837.5,5.03,000.00,031.4,026.5,000.0,039.3,031.2,34.3,-000.5,0008.03,0011.84,0007.69
2023-07-21 18:52:00,SystemResetWarning,0837.5,4.97,000.00,031.5,026.9,000.0,039.3,031.3,34.0,-000.1,0008.03,0011.87,0007.68
2023-07-21 18:53:00,SystemResetWarning,0837.5,5.03,000.00,031.6,027.2,000.0,039.3,031.4,32.1,0000.4,0008.05,0012.06,0007.67
2023-07-21 18:54:00,SystemResetWarning,0837.5,4.98,000.00,031.6,027.5,000.0,039.3,031.5,32.8,0000.9,0008.05,0012.19,0007.65
2023-07-21 18:55:00,SystemResetWarning,0837.5,5.01,000.00,031.6,027.7,000.0,039.4,031.5,34.7,0000.8,0008.06,0012.29,0007.63
2023-07-21 18:56:00,SystemResetWarning,0837.5,5.00,000.00,031.7,027.8,000.0,039.4,031.6,34.7,0000.9,0008.05,0012.25,0007.61
2023-07-21 18:57:00,SystemResetWarning,0837.4,4.99,000.00,031.7,026.9,000.0,039.3,031.6,33.9,0001.0,0008.04,0012.30,0007.61
2023-07-21 18:58:00,SystemResetWarning,0837.4,5.00,000.00,031.8,025.5,000.0,039.2,031.4,32.4,0000.9,0007.98,0012.18,0007.57
2023-07-21 18:59:00,SystemResetWarning,0837.4,5.02,000.00,031.7,025.2,000.0,039.1,031.2,33.2,0001.1,0007.92,0011.20,0007.52
